Location: Beetenbrück
(52.8113°N, 9.5946°E)
Time: 16:18:58
(UTC+00:00)

COSMOS 2455 - Pass Details

Date: 14 April 2026
Orbit: 901 x 907 km, 67.1° (Epoch: 8 May)

Event Time Altitude Azimuth Distance (km) Brightness Sun altitude
Rises 21:00:40 0° 317° (NW) 3,545 7.5 -20.7°
Reaches altitude 10° 21:03:25 10° 326° (NW) 2,601 6.4 -20.9°
Maximum altitude 21:08:56 35° 32° (NNE) 1,425 4.0 -21.4°
Enters shadow 21:12:31 19° 86° (E) 2,009 4.4 -21.7°
